DLH785 EDDF-ENBR

Flight info

Callsign DLH785
Flight time N/A
Altitude 24000
Route MARUN7F/25C MARUN Y152 ARPEG/N0494F430 Z850 ABILU DCT ATPAQ DCT DOROR DCT MITSI DCT BADAB
Aircraft A359/H-SDE2E3GHIJ3J4J5LM1ORWXY/LB1D1

Departure

Time N/A
Airport Frankfurt Main Airport (EDDF)

Arrival

Time 2026-05-07 12:45
Airport Bergen Airport, Flesland (ENBR)
Time Latitude Longitude Altitude Speed Heading
2026-05-07 11:53 57.00505 6.44644 24114 ft 394 kts 348°
2026-05-07 11:53 57.03223 6.44191 24117 ft 393 kts 348°
2026-05-07 11:54 57.05944 6.43740 24116 ft 392 kts 348°
2026-05-07 11:54 57.08662 6.43254 24116 ft 392 kts 348°
2026-05-07 11:54 57.11371 6.42746 24116 ft 392 kts 347°
2026-05-07 11:54 57.14084 6.42223 24116 ft 392 kts 347°
2026-05-07 11:55 57.16794 6.41692 24116 ft 392 kts 347°
2026-05-07 11:55 57.19507 6.41156 24116 ft 392 kts 347°
2026-05-07 11:55 57.22212 6.40619 24131 ft 392 kts 347°
2026-05-07 11:55 57.24927 6.40079 24118 ft 391 kts 347°
2026-05-07 11:56 57.27636 6.39537 24116 ft 391 kts 347°
2026-05-07 11:56 57.30346 6.38994 24116 ft 391 kts 347°
2026-05-07 11:56 57.33049 6.38451 24122 ft 391 kts 347°
2026-05-07 11:56 57.35759 6.37906 24121 ft 391 kts 347°
2026-05-07 11:57 57.38468 6.37361 24121 ft 391 kts 347°
2026-05-07 11:57 57.41173 6.36815 24121 ft 391 kts 347°
2026-05-07 11:57 57.43881 6.36269 24121 ft 391 kts 347°
2026-05-07 11:57 57.46590 6.35721 24122 ft 391 kts 347°
2026-05-07 11:58 57.49297 6.35173 24131 ft 391 kts 347°
2026-05-07 11:58 57.52010 6.34624 24124 ft 391 kts 346°
2026-05-07 11:58 57.54708 6.34076 24121 ft 391 kts 346°
2026-05-07 11:58 57.57411 6.33526 24123 ft 391 kts 346°
2026-05-07 11:59 57.60083 6.32982 24122 ft 391 kts 346°
2026-05-07 11:59 57.62783 6.32431 24122 ft 391 kts 346°
2026-05-07 11:59 57.65524 6.31870 24124 ft 391 kts 346°
2026-05-07 11:59 57.68192 6.31324 24123 ft 391 kts 346°
2026-05-07 12:00 57.70929 6.30763 24125 ft 391 kts 346°
2026-05-07 12:00 57.73597 6.30216 24124 ft 391 kts 346°
2026-05-07 12:00 57.75418 6.29841 24124 ft 391 kts 346°
2026-05-07 12:01 57.82020 6.28483 24130 ft 390 kts 346°
2026-05-07 12:01 57.84531 6.27964 24122 ft 390 kts 346°
2026-05-07 12:01 57.86998 6.27453 24128 ft 390 kts 346°
2026-05-07 12:01 57.89697 6.26894 24120 ft 390 kts 346°
2026-05-07 12:02 57.92398 6.26333 24122 ft 390 kts 346°
2026-05-07 12:02 57.95096 6.25773 24123 ft 390 kts 346°
2026-05-07 12:02 57.97791 6.25212 24123 ft 390 kts 346°
2026-05-07 12:02 58.00492 6.24649 24126 ft 390 kts 346°
2026-05-07 12:03 58.03188 6.24086 24126 ft 390 kts 346°
2026-05-07 12:03 58.05887 6.23523 24133 ft 390 kts 345°
2026-05-07 12:03 58.08578 6.22960 24126 ft 389 kts 345°
2026-05-07 12:03 58.11273 6.22394 24125 ft 389 kts 345°
2026-05-07 12:04 58.13965 6.21828 24120 ft 389 kts 345°
2026-05-07 12:04 58.16656 6.21262 24122 ft 389 kts 345°
2026-05-07 12:04 58.19346 6.20695 24122 ft 389 kts 345°
2026-05-07 12:04 58.22037 6.20128 24127 ft 389 kts 345°
2026-05-07 12:05 58.24725 6.19560 24127 ft 389 kts 345°
2026-05-07 12:05 58.27415 6.18990 24127 ft 389 kts 345°
2026-05-07 12:05 58.30108 6.18420 24123 ft 389 kts 345°
2026-05-07 12:05 58.32798 6.17849 24122 ft 389 kts 345°
2026-05-07 12:06 58.35487 6.17279 24128 ft 388 kts 345°
2026-05-07 12:06 58.38171 6.16707 24124 ft 388 kts 345°
2026-05-07 12:06 58.40859 6.16134 24122 ft 388 kts 345°
2026-05-07 12:06 58.43545 6.15559 24124 ft 388 kts 345°
2026-05-07 12:07 58.46230 6.14985 24120 ft 388 kts 345°
2026-05-07 12:07 58.48007 6.14606 24119 ft 388 kts 345°
2026-05-07 12:07 58.51563 6.13843 24119 ft 388 kts 345°
2026-05-07 12:07 58.53379 6.13453 24120 ft 388 kts 345°
2026-05-07 12:08 58.56932 6.12686 24116 ft 388 kts 345°
2026-05-07 12:08 58.59612 6.12109 24119 ft 388 kts 345°
2026-05-07 12:08 58.62298 6.11532 24120 ft 388 kts 345°
2026-05-07 12:08 58.64978 6.10953 24116 ft 388 kts 345°
2026-05-07 12:09 58.66793 6.10561 24108 ft 388 kts 345°
2026-05-07 12:09 58.69446 6.09986 24110 ft 388 kts 345°
2026-05-07 12:09 58.72124 6.09405 24109 ft 388 kts 345°
2026-05-07 12:09 58.74813 6.08821 24107 ft 388 kts 345°
2026-05-07 12:10 58.77501 6.08236 24104 ft 388 kts 345°
2026-05-07 12:10 58.80179 6.07653 24080 ft 386 kts 345°
2026-05-07 12:10 58.82819 6.07074 23510 ft 381 kts 345°
2026-05-07 12:10 58.85469 6.06480 22351 ft 389 kts 345°
2026-05-07 12:11 58.88189 6.05882 21180 ft 396 kts 346°
2026-05-07 12:11 58.90953 6.05295 20087 ft 403 kts 347°
2026-05-07 12:11 58.93743 6.04715 19221 ft 402 kts 347°
2026-05-07 12:11 58.96517 6.04133 18401 ft 400 kts 347°
2026-05-07 12:12 58.99271 6.03546 17530 ft 396 kts 347°
2026-05-07 12:12 59.01996 6.02958 16689 ft 392 kts 347°
2026-05-07 12:12 59.04692 6.02372 15876 ft 388 kts 347°
2026-05-07 12:12 59.07358 6.01790 15070 ft 383 kts 347°
2026-05-07 12:13 59.09969 6.01022 14329 ft 377 kts 343°
2026-05-07 12:13 59.12528 5.99988 13485 ft 373 kts 342°
2026-05-07 12:13 59.15063 5.98951 12595 ft 370 kts 343°
2026-05-07 12:13 59.17578 5.97951 11728 ft 367 kts 343°
2026-05-07 12:14 59.20074 5.96979 10927 ft 364 kts 344°
2026-05-07 12:14 59.22515 5.96040 10521 ft 350 kts 344°
2026-05-07 12:14 59.24845 5.95129 10198 ft 334 kts 343°
2026-05-07 12:14 59.27081 5.94241 9884 ft 320 kts 343°
2026-05-07 12:15 59.29210 5.93399 9637 ft 304 kts 343°
2026-05-07 12:15 59.31231 5.92626 9876 ft 293 kts 343°
2026-05-07 12:15 59.33262 5.91833 10071 ft 297 kts 343°
2026-05-07 12:15 59.35273 5.91054 10106 ft 293 kts 343°
2026-05-07 12:16 59.37272 5.90286 10100 ft 292 kts 343°
2026-05-07 12:16 59.39266 5.89518 10099 ft 292 kts 343°
2026-05-07 12:16 59.41261 5.88746 10099 ft 292 kts 343°
2026-05-07 12:16 59.43267 5.88051 10096 ft 294 kts 347°
2026-05-07 12:17 59.45304 5.87631 10101 ft 294 kts 349°
2026-05-07 12:17 59.47342 5.87298 10109 ft 294 kts 349°
2026-05-07 12:17 59.49380 5.86971 10101 ft 294 kts 349°
2026-05-07 12:17 59.51419 5.86641 10101 ft 294 kts 349°
2026-05-07 12:18 59.53456 5.86308 10101 ft 294 kts 349°
2026-05-07 12:18 59.55495 5.85976 10100 ft 294 kts 349°
2026-05-07 12:18 59.57537 5.85644 10104 ft 295 kts 349°
2026-05-07 12:18 59.59578 5.85308 10101 ft 294 kts 349°
2026-05-07 12:19 59.61617 5.84975 10096 ft 294 kts 349°
2026-05-07 12:19 59.63654 5.84641 10097 ft 294 kts 349°
2026-05-07 12:19 59.65694 5.84304 10099 ft 294 kts 349°
2026-05-07 12:19 59.67728 5.83969 10105 ft 294 kts 349°
2026-05-07 12:20 59.69768 5.83634 10098 ft 294 kts 349°
2026-05-07 12:20 59.71805 5.83297 10096 ft 294 kts 349°
2026-05-07 12:20 59.73843 5.82960 10096 ft 294 kts 349°
2026-05-07 12:20 59.75881 5.82622 10102 ft 294 kts 349°
2026-05-07 12:21 59.77914 5.82284 10099 ft 293 kts 349°
2026-05-07 12:21 59.79947 5.81947 10104 ft 293 kts 349°
2026-05-07 12:21 59.81976 5.81557 10101 ft 292 kts 347°
2026-05-07 12:21 59.83974 5.80939 10098 ft 291 kts 344°
2026-05-07 12:22 59.85972 5.80226 10101 ft 292 kts 344°
2026-05-07 12:22 59.87968 5.79504 10106 ft 292 kts 344°
2026-05-07 12:22 59.89966 5.78784 10103 ft 292 kts 344°
2026-05-07 12:22 59.91937 5.78084 10096 ft 278 kts 344°
2026-05-07 12:23 59.93778 5.77451 10096 ft 259 kts 344°
2026-05-07 12:23 59.95491 5.76870 10094 ft 241 kts 344°
2026-05-07 12:23 59.97097 5.76327 10016 ft 229 kts 343°
2026-05-07 12:23 59.98637 5.75799 9858 ft 220 kts 343°
2026-05-07 12:24 60.00119 5.75286 9705 ft 212 kts 343°
2026-05-07 12:24 60.01526 5.74802 9615 ft 199 kts 343°
2026-05-07 12:24 60.02858 5.74343 9472 ft 190 kts 343°
2026-05-07 12:24 60.04138 5.73898 9261 ft 184 kts 343°
2026-05-07 12:25 60.05390 5.73455 9030 ft 182 kts 343°
2026-05-07 12:25 60.06624 5.73014 8766 ft 179 kts 343°
2026-05-07 12:25 60.07849 5.72575 8469 ft 178 kts 343°
2026-05-07 12:25 60.09064 5.72135 8192 ft 177 kts 343°
2026-05-07 12:26 60.10274 5.71697 8105 ft 177 kts 343°
2026-05-07 12:26 60.11484 5.71256 8102 ft 177 kts 343°
2026-05-07 12:26 60.12692 5.70816 8107 ft 176 kts 343°
2026-05-07 12:26 60.13898 5.70385 8103 ft 176 kts 345°
2026-05-07 12:27 60.15116 5.70036 8099 ft 177 kts 346°
2026-05-07 12:27 60.16334 5.69717 8103 ft 177 kts 346°
2026-05-07 12:27 60.17551 5.69392 8104 ft 176 kts 346°
2026-05-07 12:27 60.18768 5.69061 8107 ft 176 kts 346°
2026-05-07 12:28 60.19969 5.68731 8112 ft 177 kts 346°
2026-05-07 12:28 60.21187 5.68394 8097 ft 177 kts 346°
2026-05-07 12:28 60.22404 5.68052 8109 ft 176 kts 346°
2026-05-07 12:28 60.23618 5.67712 8107 ft 176 kts 346°
2026-05-07 12:29 60.24835 5.67371 8106 ft 176 kts 346°
2026-05-07 12:29 60.26049 5.67029 8108 ft 176 kts 346°
2026-05-07 12:29 60.27266 5.66686 8103 ft 177 kts 346°
2026-05-07 12:29 60.28463 5.66189 8059 ft 176 kts 332°
2026-05-07 12:30 60.29505 5.64902 7751 ft 175 kts 315°
2026-05-07 12:30 60.30439 5.63340 7495 ft 173 kts 313°
2026-05-07 12:30 60.31346 5.61769 7256 ft 172 kts 313°
2026-05-07 12:30 60.32248 5.60200 6988 ft 171 kts 313°
2026-05-07 12:31 60.33147 5.58636 6727 ft 170 kts 313°
2026-05-07 12:31 60.34048 5.57080 6449 ft 170 kts 313°
2026-05-07 12:31 60.34940 5.55529 6196 ft 168 kts 314°
2026-05-07 12:31 60.35819 5.53994 5975 ft 166 kts 314°
2026-05-07 12:32 60.36139 5.53436 5891 ft 166 kts 313°
2026-05-07 12:34 60.36914 5.52084 5641 ft 167 kts 313°
2026-05-07 12:34 60.37793 5.50548 5407 ft 166 kts 313°
2026-05-07 12:34 60.38667 5.49022 5180 ft 166 kts 314°
2026-05-07 12:35 60.39537 5.47501 4939 ft 165 kts 314°
2026-05-07 12:35 60.40406 5.45983 4670 ft 165 kts 314°
2026-05-07 12:35 60.41274 5.44463 4428 ft 164 kts 314°
2026-05-07 12:35 60.42136 5.42957 4122 ft 163 kts 314°
2026-05-07 12:36 60.42992 5.41455 3844 ft 162 kts 315°
2026-05-07 12:36 60.43846 5.39963 3551 ft 162 kts 314°
2026-05-07 12:36 60.44702 5.38461 3276 ft 163 kts 314°
2026-05-07 12:36 60.45546 5.36984 3127 ft 155 kts 313°
2026-05-07 12:37 60.46350 5.35594 2994 ft 150 kts 314°
2026-05-07 12:37 60.47141 5.34213 2981 ft 150 kts 312°
2026-05-07 12:37 60.47925 5.32831 2981 ft 149 kts 314°
2026-05-07 12:37 60.48694 5.31446 2976 ft 147 kts 311°
2026-05-07 12:38 60.49337 5.29866 2980 ft 144 kts 295°
2026-05-07 12:38 60.49717 5.28039 2977 ft 142 kts 278°
2026-05-07 12:38 60.49776 5.26083 2972 ft 139 kts 251°
2026-05-07 12:38 60.49448 5.24288 2981 ft 135 kts 238°
2026-05-07 12:39 60.49030 5.22555 2989 ft 137 kts 236°
2026-05-07 12:39 60.48591 5.20827 2988 ft 138 kts 237°
2026-05-07 12:39 60.48144 5.19112 2975 ft 137 kts 235°
2026-05-07 12:39 60.47624 5.17500 2981 ft 136 kts 223°
2026-05-07 12:40 60.46863 5.16464 2992 ft 131 kts 195°
2026-05-07 12:40 60.45973 5.16238 2992 ft 130 kts 172°
2026-05-07 12:40 60.45086 5.16511 2995 ft 128 kts 166°
2026-05-07 12:40 60.44213 5.16807 2989 ft 127 kts 167°
2026-05-07 12:41 60.43363 5.17101 2864 ft 120 kts 168°
2026-05-07 12:41 60.42546 5.17364 2691 ft 119 kts 168°
2026-05-07 12:41 60.41730 5.17638 2534 ft 119 kts 167°
2026-05-07 12:41 60.40915 5.17918 2372 ft 118 kts 168°
2026-05-07 12:42 60.40106 5.18194 2197 ft 118 kts 168°
2026-05-07 12:42 60.39296 5.18468 2035 ft 119 kts 168°
2026-05-07 12:42 60.38481 5.18743 1875 ft 119 kts 168°
2026-05-07 12:42 60.37667 5.19018 1713 ft 117 kts 169°
2026-05-07 12:43 60.36858 5.19294 1535 ft 118 kts 169°
2026-05-07 12:43 60.36046 5.19563 1376 ft 118 kts 169°
2026-05-07 12:43 60.35240 5.19835 1207 ft 118 kts 168°
2026-05-07 12:43 60.34431 5.20143 1070 ft 119 kts 166°
2026-05-07 12:44 60.33602 5.20421 918 ft 121 kts 168°
2026-05-07 12:44 60.32762 5.20690 686 ft 122 kts 170°
2026-05-07 12:44 60.31940 5.20962 480 ft 117 kts 168°
2026-05-07 12:44 60.31129 5.21232 325 ft 118 kts 168°
2026-05-07 12:45 60.30310 5.21505 176 ft 119 kts 169°
2026-05-07 12:45 60.29579 5.21741 162 ft 86 kts 171°
2026-05-07 12:45 60.29267 5.21845 159 ft 28 kts 171°
2026-05-07 12:45 60.29038 5.21918 157 ft 11 kts 171°
2026-05-07 12:46 60.28948 5.21955 157 ft 18 kts 159°
2026-05-07 12:46 60.28914 5.22076 156 ft 14 kts 88°
2026-05-07 12:46 60.28932 5.22344 157 ft 6 kts 108°
2026-05-07 12:46 60.28899 5.22431 157 ft 9 kts 109°
2026-05-07 12:47 60.28895 5.22481 157 ft 2 kts 97°
2026-05-07 12:47 60.28893 5.22500 157 ft 2 kts 99°
2026-05-07 12:47 60.28892 5.22522 157 ft 0 kts 99°